Weather History for Kingman, AZ

Change the Weather History Date:

Sunday, April 20, 2014

  Actual Average Record
Temperature  
Mean Temperature 69 °F 60 °F  
Max Temperature 84 °F 75 °F 95 °F (1938)
Min Temperature 54 °F 45 °F 30 °F (1941)
Degree Days  
Heating Degree Days 0 6  
Month to date heating degree days 108 167  
Since 1 July heating degree days 2736 2998  
Cooling Degree Days 4 1  
Month to date cooling degree days 24 13  
Year to date cooling degree days 24 16  
Growing Degree Days 18 (Base 50)    
Moisture  
Dew Point 34 °F    
Average Humidity 33    
Maximum Humidity 51    
Minimum Humidity 15    
Precipitation  
Precipitation 0.00 in 0.01 in 2.50 in (1933)
Month to date precipitation 0.02 0.32  
Year to date precipitation 0.57 3.24  
Sea Level Pressure  
Sea Level Pressure 29.92 in    
Wind  
Wind Speed 9 mph (SSW)    
Max Wind Speed 18 mph    
Max Gust Speed 23 mph    
Visibility 10 miles    
Events      
T = Trace of Precipitation, MM = Missing Value Source: NWS Daily Summary

Daily Weather History Graph

Daily Weather History Graph

Search for Another Location

Airport:

Trip Planner

Search our weather history database for the weather conditions in past years. The results will help you decide how hot, cold, wet, or windy it might be!

Date:

Astronomy

Apr. 20, 2014 Rise Set
Actual Time 5:57 AM MST 7:12 PM MST
Civil Twilight 5:30 AM MST 7:39 PM MST
Nautical Twilight 4:59 AM MST 8:10 PM MST
Astronomical Twilight 4:26 AM MST 8:43 PM MST
Moon No Moon Rise 10:26 AM MST (4/20)
Length of Visible Light 14h 08m
Length of Day
13h 15m
Waning Gibbous, 67% of the Moon is Illuminated
Apr 20
Waning Gibbous
Apr 22
Last Quarter
Apr 28
New
May 6
First Quarter
May 14
Full

Hourly Weather History & Observations

Time (MST) Temp. Dew Point Humidity Pressure Visibility Wind Dir Wind Speed Gust Speed Precip Events Conditions
12:51 AM 61.0 °F 37.0 °F 41% 29.90 in 10.0 mi SSE 6.9 mph - N/A   Clear
1:51 AM 59.0 °F 37.9 °F 46% 29.90 in 10.0 mi SE 10.4 mph - N/A   Clear
2:51 AM 59.0 °F 37.9 °F 46% 29.90 in 10.0 mi SE 8.1 mph - N/A   Clear
3:51 AM 57.0 °F 37.9 °F 49% 29.90 in 10.0 mi SE 9.2 mph - N/A   Clear
4:51 AM 55.0 °F 37.0 °F 51% 29.91 in 10.0 mi SSE 3.5 mph - N/A   Clear
5:51 AM 55.0 °F 36.0 °F 49% 29.92 in 10.0 mi SSE 5.8 mph - N/A   Clear
6:51 AM 57.9 °F 37.0 °F 46% 29.94 in 10.0 mi SSE 8.1 mph - N/A   Clear
7:51 AM 68.0 °F 37.9 °F 33% 29.94 in 10.0 mi Calm Calm - N/A   Clear
8:51 AM 71.1 °F 37.0 °F 29% 29.94 in 10.0 mi WSW 3.5 mph - N/A   Clear
9:51 AM 75.0 °F 34.0 °F 22% 29.94 in 10.0 mi SW 9.2 mph - N/A   Clear
10:51 AM 78.1 °F 34.0 °F 20% 29.95 in 10.0 mi SW 9.2 mph - N/A   Clear
11:51 AM 78.8 °F 32.0 °F 18% 30.11 in 10.0 mi NW 8.1 mph - N/A   Clear
12:51 PM 80.1 °F 32.0 °F 17% 29.91 in 10.0 mi SW 6.9 mph - N/A   Clear
1:51 PM 82.4 °F 32.0 °F 16% 30.08 in 10.0 mi Variable 6.9 mph - N/A   Clear
2:51 PM 82.0 °F 32.0 °F 16% 29.87 in 10.0 mi West 10.4 mph - N/A   Clear
3:51 PM 84.0 °F 32.0 °F 15% 29.86 in 10.0 mi West 12.7 mph - N/A   Clear
4:51 PM 82.9 °F 32.0 °F 16% 29.86 in 10.0 mi WSW 12.7 mph 19.6 mph N/A   Clear
5:51 PM 81.0 °F 32.0 °F 17% 29.86 in 10.0 mi SW 13.8 mph - N/A   Clear
6:51 PM 78.1 °F 30.9 °F 18% 29.87 in 10.0 mi SW 12.7 mph - N/A   Clear
7:51 PM 75.2 °F 32.0 °F 21% 30.06 in 10.0 mi SW 11.5 mph - N/A   Clear
8:51 PM 71.1 °F 32.0 °F 24% 29.89 in 10.0 mi SSW 9.2 mph - N/A   Clear
9:51 PM 70.0 °F 32.0 °F 25% 29.90 in 10.0 mi SSW 12.7 mph - N/A   Clear
10:51 PM 70.0 °F 33.1 °F 26% 29.90 in 10.0 mi SSW 12.7 mph - N/A   Clear
11:51 PM 69.1 °F 34.0 °F 27% 29.90 in 10.0 mi SSW 12.7 mph - N/A   Clear